Home > Weather > Herne > Past weeks

Flag for Germany Past Weather in Herne, North Rhine-Westphalia, Germany — Yesterday and Last 2 Weeks

Now
64 °F

Passing clouds.


Feels Like: 64 °F
Forecast: 57 / 66 °F
Wind: 8 mph from Southwest

Location: Dortmund / Wickede

Current Time: Jun 29, 2016 at 8:22:00 PM

Latest Report: Jun 29, 2016 at 7:20 PM


Visibility: N/A

Pressure: 29.89 "Hg

Humidity: 52%

Dew Point: 46 °F

Location of HerneLocation

Past Weather in Herne — Graph

°F

Herne Temperature Yesterday

Maximum temperature yesterday: 72 °F (at 5:20 PM)
Minimum temperature yesterday: 54 °F (at 5:20 AM)
Average temperature yesterday: 65 °F

High & Low Weather Summary for the Past Weeks

 TemperatureHumidityPressure
High90 °F (Jun 23, 3:20 PM)94% (Jun 17, 5:20 AM)30.24 "Hg (Jun 17, 5:20 AM)
Low48 °F (Jun 20, 5:20 AM)38% (Jun 23, 3:20 PM)29.47 "Hg (Jun 14, 6:20 PM)
Average63 °F71%29.96 "Hg
* Reported Jun 14 6:20 PM — Jun 29 6:50 PM, Herne, Weather by CustomWeather, © 2016

Note: Actual official high and low records may vary slightly from our data, if they occured in-between our weather recording intervals... More about our weather records

Advertising

Herne Weather History for the Previous 24 Hours

Scroll right to see more
 ConditionsComfort  
Time TempWeatherWind HumidityBarometerVisibility
6:50 PM
Wed, Jun 29
66 °FPassing clouds.12 mph46%29.89 "HgN/A
6:20 PM66 °FSunny.10 mph49%29.89 "Hg10 mi
5:50 PM68 °FSunny.14 mph43%29.89 "Hg10 mi
5:20 PM68 °FSunny.14 mph46%29.92 "Hg10 mi
4:50 PM68 °FPassing clouds.14 mph40%29.92 "HgN/A
4:20 PM64 °FScattered clouds.14 mph46%29.92 "HgN/A
3:50 PM68 °FScattered clouds.15 mph43%29.92 "HgN/A
3:20 PM66 °FScattered clouds.13 mph46%29.92 "HgN/A
2:50 PM68 °FScattered clouds.14 mph49%29.92 "HgN/A
2:20 PM66 °FScattered clouds.13 mph49%29.92 "HgN/A
1:50 PM64 °FPartly sunny.16 mph56%29.92 "HgN/A
1:20 PM63 °FPartly sunny.16 mph59%29.92 "HgN/A
12:50 PM63 °FPartly sunny.16 mph59%29.92 "HgN/A
12:20 PM63 °FPartly sunny.18 mph56%29.92 "HgN/A
11:50 AM63 °FPartly sunny.16 mph59%29.92 "HgN/A
11:20 AM61 °FPartly sunny.17 mph63%29.89 "HgN/A
10:50 AM61 °FPartly sunny.18 mph68%29.89 "HgN/A
10:20 AM59 °FPartly sunny.18 mph68%29.89 "HgN/A
9:50 AM59 °FPartly sunny.15 mph72%29.89 "HgN/A
9:20 AM59 °FScattered clouds.15 mph72%29.89 "HgN/A
8:50 AM59 °FScattered clouds.15 mph72%29.89 "HgN/A
8:20 AM57 °FScattered clouds.18 mph77%29.89 "HgN/A
7:50 AM57 °FScattered clouds.15 mph82%29.86 "HgN/A
7:20 AM59 °FScattered clouds.13 mph77%29.86 "HgN/A
6:50 AM57 °FScattered clouds.6 mph88%29.86 "HgN/A
6:20 AM57 °FScattered clouds.7 mph82%29.86 "HgN/A
5:50 AM57 °FPassing clouds.8 mph88%29.83 "HgN/A
5:20 AM57 °FPassing clouds.9 mph88%29.83 "HgN/A
9:50 PM
Tue, Jun 28
66 °FSunny.5 mph56%29.89 "Hg10 mi
9:20 PM66 °FSunny.6 mph56%29.89 "Hg10 mi
8:50 PM68 °FPassing clouds.5 mph53%29.92 "HgN/A
8:20 PM68 °FSunny.7 mph49%29.92 "Hg10 mi
Weather by CustomWeather, © 2016

See weather overviewHow to use our weather pages